Flag for Germany Weather past 2 weeks in Bocholt, North Rhine-Westphalia, Germany

Now
46 °F

Light rain. Fog.


Feels Like: 41 °F
Forecast: 45 / 52 °F
Wind: 12 mph from Southwest

Location: Niederrhein

Current Time: Dec 21, 2014 at 7:06:27 PM

Latest Report: Dec 21, 2014 at 6:20 PM


Visibility: 3 mi

Pressure: 30.24 "Hg

Humidity: 100%

Dew point: 46 °F

Location of BocholtLocation

Historic Weather in Bocholt — Graph

°F

Bocholt temperature yesterday

Maximum temperature yesterday: 48 °F (at 2:50 PM)
Minimum temperature yesterday: 41 °F (at 4:50 AM)
Average temperature yesterday: 43 °F

Past Weeks' High & Low Weather Summary

 TemperatureHumidityPressure
High55 °F (Dec 18, 3:50 PM)100% (Dec 6, 5:20 PM)30.39 "Hg (Dec 6, 5:20 PM)
Low34 °F (Dec 7, 7:50 AM)71% (Dec 10, 2:20 PM)29.36 "Hg (Dec 12, 12:20 PM)
Average43 °F95%29.94 "Hg
* Reported Dec 6 5:20 PM — Dec 21 5:50 PM, Bocholt, Weather by CustomWeather, © 2014

Note: Actual official high and low records may vary slightly from our data, if they occured in-between our weather recording intervals... More about our weather records

Advertising

Bocholt weather history for previous 24 hours

 ConditionsComfort  
Time TempWeatherWind HumidityBarometerVisibility
5:50 PM
Dec 21
46 °FLight rain. Passing clouds.17 mph100%30.24 "Hg4 mi
5:20 PM46 °FLight rain. Partly sunny.16 mph100%30.24 "HgN/A
4:50 PM46 °FLight rain. Partly sunny.17 mph100%30.24 "Hg6 mi
4:20 PM46 °FLight rain. Partly sunny.14 mph100%30.24 "Hg5 mi
3:50 PM45 °FLight rain. Partly sunny.14 mph100%30.24 "Hg5 mi
3:20 PM45 °FLight rain. Partly sunny.13 mph100%30.27 "Hg6 mi
2:50 PM45 °FLight rain. Partly sunny.15 mph100%30.27 "Hg6 mi
2:20 PM45 °FSprinkles. Partly sunny.14 mph100%30.27 "HgN/A
1:50 PM45 °FPartly sunny.14 mph93%30.30 "HgN/A
1:20 PM45 °FBroken clouds.12 mph93%30.30 "HgN/A
12:50 PM45 °FPartly sunny.14 mph93%30.33 "HgN/A
12:20 PM43 °FPartly sunny.13 mph100%30.33 "HgN/A
11:50 AM43 °FPartly sunny.12 mph93%30.33 "HgN/A
11:20 AM43 °FPartly sunny.13 mph93%30.36 "HgN/A
10:50 AM41 °FPartly sunny.13 mph100%30.36 "HgN/A
10:20 AM41 °FPartly sunny.12 mph100%30.36 "HgN/A
9:50 AM41 °FPartly sunny.10 mph100%30.36 "HgN/A
9:20 AM39 °FPassing clouds.9 mph100%30.36 "HgN/A
8:50 AM39 °FPassing clouds.9 mph100%30.36 "HgN/A
8:20 AM39 °FPassing clouds.10 mph100%30.36 "Hg6 mi
7:50 AM41 °FPassing clouds.12 mph100%30.36 "HgN/A
7:20 AM39 °FClear.10 mph100%30.39 "Hg10 mi
6:50 AM39 °FClear.10 mph100%30.36 "Hg10 mi
6:20 AM39 °FPassing clouds.9 mph100%30.39 "HgN/A
5:50 AM41 °FClear.8 mph93%30.36 "Hg10 mi
5:20 AM41 °FClear.8 mph100%30.39 "Hg10 mi
4:50 AM41 °FClear.8 mph100%30.39 "Hg10 mi
11:50 PM
Dec 20
41 °FClear.9 mph93%30.33 "Hg10 mi
11:20 PM41 °FClear.10 mph93%30.30 "Hg10 mi
10:50 PM41 °FClear.9 mph93%30.30 "Hg10 mi
10:20 PM41 °FClear.8 mph93%30.30 "Hg10 mi
9:50 PM41 °FClear.7 mph93%30.27 "Hg10 mi
9:20 PM43 °FPassing clouds.9 mph87%30.27 "HgN/A
8:50 PM43 °FPassing clouds.10 mph87%30.24 "HgN/A
8:20 PM43 °FPassing clouds.8 mph87%30.24 "HgN/A
7:50 PM43 °FClear.14 mph87%30.21 "Hg10 mi
7:20 PM43 °FClear.15 mph87%30.18 "Hg10 mi
Weather by CustomWeather, © 2014

See weather overviewHow to use our weather pages